EW7770 Weather Reports


time (UTC)temp
F
wind
direction
speed
knots
gust
knots
rain 1hr
in
rain 24hr
in
rain mn
in
humidity
%
barometer
mb
20210620101123 59 360 0.0 0.9 0.00 0.51 0.01 92 1006.2
20210620100124 58 360 0.0 0.0 0.00 0.51 0.01 92 1006.0
20210620095124 57 334 0.9 1.7 0.00 0.51 0.01 93 1005.9
20210620094222 57 270 0.0 0.0 0.00 0.51 0.01 93 1005.8
20210620093223 57 225 0.0 0.0 0.00 0.51 0.01 93 1005.8
20210620092225 57 225 0.0 0.0 0.00 0.51 0.01 93 1005.6
20210620091323 57 180 0.0 0.0 0.00 0.51 0.01 93 1005.5
20210620090323 57 360 0.0 0.9 0.00 0.51 0.01 92 1005.4
20210620090224 57 360 0.9 2.6 0.00 0.51 0.01 92 1005.4
20210620085224 57 360 0.9 0.9 0.00 0.51 0.01 92 1005.5
20210620085123 57 360 0.0 0.9 0.00 0.51 0.01 93 1005.5
20210620084124 57 360 0.0 0.0 0.00 0.51 0.01 92 1005.4
20210620083125 57 360 0.9 0.9 0.00 0.51 0.01 92 1005.3
20210620082222 58 337 0.9 2.6 0.00 0.51 0.01 92 1005.2
20210620081322 58 22 0.0 0.0 0.00 0.51 0.01 92 1005.0
20210620080324 58 22 0.0 0.9 0.01 0.51 0.01 92 1005.0
20210620075422 58 292 0.0 0.0 0.01 0.51 0.01 92 1004.9
20210620074423 58 326 0.9 1.7 0.01 0.51 0.01 92 1004.6
20210620073424 59 337 1.7 2.6 0.01 0.51 0.01 93 1004.8
20210620072522 59 337 0.0 0.9 0.01 0.51 0.01 93 1004.8
20210620071525 59 337 1.7 2.6 0.01 0.51 0.01 93 1004.8
20210620070622 59 337 0.9 2.6 0.01 0.51 0.01 93 1004.7
20210620070524 59 340 1.7 2.6 0.01 0.51 0.00 92 1004.7
20210620065524 59 315 0.0 0.9 0.00 0.50 0.00 92 1004.7
20210620064524 59 315 0.0 0.0 0.00 0.50 0.00 93 1004.7
20210620063623 59 315 0.0 0.0 0.00 0.50 0.00 93 1004.8
20210620063523 59 315 0.0 0.0 0.00 0.50 0.00 92 1004.7
20210620062523 59 315 0.0 0.0 0.00 0.50 0.00 93 1004.8
20210620061525 59 315 0.0 0.0 0.00 0.50 0.00 93 1004.7
20210620060524 59 315 0.0 0.0 0.00 0.50 0.00 93 1004.6
20210620055524 60 315 0.0 0.0 0.00 0.50 0.00 92 1004.8
20210620054524 60 315 0.0 0.0 0.00 0.50 0.00 93 1004.7
20210620053523 60 315 0.0 0.9 0.00 0.50 0.00 93 1004.7
20210620052525 60 315 0.0 0.0 0.00 0.50 0.00 92 1004.7
20210620051523 60 315 0.0 0.0 0.00 0.50 0.00 92 1004.8
20210620050525 60 315 0.0 0.0 0.00 0.50 0.00 93 1004.9
20210620045524 60 315 0.0 0.0 0.00 0.50 0.00 93 1004.8
20210620044526 60 315 0.0 0.0 0.00 0.50 0.00 93 1005.1
20210620043525 60 315 0.0 0.0 0.00 0.50 0.00 93 1005.0
20210620042524 60 315 0.0 0.0 0.00 0.50 0.00 92 1004.9
20210620041524 60 315 0.0 0.0 0.00 0.50 0.00 92 1004.9
20210620040524 60 315 0.0 0.0 0.00 0.50 0.00 92 1005.0
20210620035535 60 315 0.0 0.0 0.00 0.50 0.50 92 1005.1
20210620034631 60 315 0.0 0.0 0.00 0.50 0.50 92 1005.1
20210620033633 60 315 0.0 0.0 0.00 0.50 0.50 91 1005.2
20210620032634 60 315 0.0 0.0 0.00 0.50 0.50 92 1005.1
20210620031732 60 315 0.0 0.0 0.00 0.50 0.50 92 1005.1
20210620030733 60 315 0.0 0.0 0.00 0.50 0.50 91 1005.1
20210620030631 60 315 0.0 0.0 0.00 0.50 0.50 92 1005.1
20210620025631 60 315 0.0 0.0 0.00 0.50 0.50 90 1005.0
20210620024631 59 247 0.0 0.0 0.00 0.50 0.50 90 1005.1
20210620023633 60 247 0.0 0.0 0.00 0.50 0.50 91 1005.1
20210620022634 60 247 0.0 0.0 0.00 0.50 0.50 91 1005.3
20210620021731 60 247 0.0 0.0 0.00 0.50 0.50 90 1005.3
20210620020733 61 270 0.0 0.0 0.00 0.50 0.50 90 1005.0
20210620015735 61 247 0.0 0.0 0.00 0.50 0.50 90 1005.0
20210620014731 61 247 0.9 1.7 0.00 0.50 0.50 89 1005.1
20210620013831 61 253 0.0 2.6 0.00 0.50 0.50 89 1005.1
20210620013733 61 247 0.0 0.9 0.00 0.50 0.50 89 1005.1
20210620012734 61 269 0.9 1.7 0.00 0.50 0.50 89 1005.0
20210620011734 61 252 0.9 1.7 0.00 0.50 0.50 90 1005.0
20210620010733 61 244 0.9 2.6 0.00 0.50 0.50 91 1004.8
20210620010633 61 270 0.0 1.7 0.00 0.50 0.50 91 1004.8
20210620005632 61 225 0.0 0.0 0.00 0.50 0.50 91 1004.6
20210620004731 62 225 0.0 1.7 0.00 0.50 0.50 91 1004.6
20210620003732 62 225 0.0 0.0 0.00 0.50 0.50 91 1004.6
20210620002732 62 219 0.0 1.7 0.01 0.50 0.50 91 1004.7
20210620001734 62 247 0.0 0.0 0.01 0.50 0.50 91 1004.6
20210620000733 62 247 0.0 0.0 0.01 0.50 0.50 91 1004.5
20210619235732 63 247 0.0 0.0 0.01 0.50 0.50 91 1004.3
20210619234831 63 247 0.0 0.0 0.01 0.50 0.50 91 1004.5
20210619233833 63 270 0.0 0.9 0.01 0.50 0.50 91 1004.6
20210619232932 63 292 0.0 0.0 0.00 0.49 0.49 91 1004.8
20210619231933 62 225 0.9 0.9 0.00 0.49 0.49 89 1005.0
20210619231832 62 226 1.7 4.3 0.00 0.49 0.49 90 1005.0
20210619230931 62 247 0.9 0.9 0.02 0.49 0.49 90 1004.6
20210619225933 63 247 0.0 0.0 0.13 0.49 0.49 89 1004.5
20210619225831 63 247 0.0 0.0 0.15 0.49 0.49 90 1004.5
20210619224832 63 247 0.0 0.0 0.34 0.49 0.49 89 1004.6
20210619224733 63 247 0.0 0.0 0.34 0.49 0.49 90 1004.6
20210619223734 62 247 0.0 1.7 0.36 0.49 0.49 90 1004.6
20210619222832 62 202 0.9 1.7 0.36 0.49 0.49 90 1004.5
20210619221831 62 202 0.0 0.9 0.36 0.49 0.48 89 1005.0
20210619220834 62 302 0.0 2.6 0.34 0.47 0.46 88 1005.8
20210619215835 63 279 1.7 3.5 0.21 0.34 0.31 86 1005.6
20210619214933 63 247 0.0 1.7 0.08 0.18 0.15 84 1005.0
20210619213934 63 225 0.9 1.7 0.03 0.13 0.13 85 1004.0
20210619212933 63 247 0.0 0.9 0.03 0.13 0.13 84 1004.2
20210619211933 64 241 1.7 2.6 0.03 0.13 0.13 83 1004.0
20210619210934 65 202 1.7 2.6 0.03 0.13 0.13 81 1004.2
20210619205935 68 247 0.9 1.7 0.03 0.13 0.13 77 1004.2
20210619204932 70 244 0.0 0.9 0.00 0.10 0.10 70 1005.0
20210619203931 70 255 0.0 2.6 0.00 0.10 0.10 68 1004.1
20210619203031 71 262 1.7 3.5 0.00 0.10 0.10 66 1003.6
20210619202034 72 225 0.9 0.9 0.00 0.10 0.10 65 1003.6
20210619201032 74 256 0.9 2.6 0.00 0.10 0.10 63 1003.5
20210619200037 76 244 1.7 4.3 0.00 0.10 0.10 60 1003.4
20210619195032 78 230 1.7 4.3 0.00 0.10 0.10 58 1003.2
20210619194931 78 212 0.9 2.6 0.00 0.10 0.10 58 1003.2
20210619193933 79 180 0.0 1.7 0.00 0.10 0.10 57 1002.7
20210619192933 77 194 2.6 4.3 0.00 0.10 0.10 60 1003.3
20210619191932 78 242 2.6 4.3 0.00 0.10 0.10 59 1003.6
20210619190933 77 200 1.7 4.3 0.00 0.10 0.10 59 1003.5
20210619185933 76 217 1.7 5.2 0.00 0.10 0.10 61 1004.1
20210619184934 75 200 0.0 2.6 0.00 0.10 0.10 62 1004.3
20210619183933 75 233 1.7 2.6 0.00 0.10 0.10 64 1004.4
20210619183831 75 244 0.0 1.7 0.00 0.10 0.10 64 1004.4
20210619182833 73 213 0.9 4.3 0.00 0.10 0.10 67 1004.3
20210619181831 72 233 2.6 4.3 0.00 0.10 0.10 67 1004.5
20210619180832 73 215 3.5 6.1 0.00 0.10 0.10 68 1004.5
20210619175834 73 264 2.6 5.2 0.00 0.10 0.10 68 1004.4
20210619174932 73 210 1.7 3.5 0.00 0.10 0.10 68 1004.4
20210619174031 73 201 1.7 4.3 0.00 0.10 0.10 69 1004.4
20210619173032 72 198 1.7 4.3 0.00 0.10 0.10 72 1004.6
20210619172033 71 222 2.6 5.2 0.00 0.10 0.10 75 1004.6
20210619171033 71 221 3.5 5.2 0.00 0.10 0.10 75 1004.9
20210619170037 69 194 1.7 4.3 0.00 0.10 0.10 76 1005.0
20210619165031 68 212 2.6 5.2 0.00 0.10 0.10 79 1005.4
20210619164032 68 202 0.0 0.9 0.00 0.10 0.10 81 1005.4
20210619163033 66 157 0.0 1.7 0.00 0.10 0.10 84 1005.5
20210619162131 66 224 2.6 5.2 0.00 0.10 0.10 83 1005.6
20210619161133 66 240 0.9 2.6 0.00 0.10 0.10 83 1005.7
20210619160133 66 228 1.7 5.2 0.00 0.10 0.10 84 1005.7
20210619155134 65 225 1.7 3.5 0.00 0.10 0.10 85 1005.8
20210619154132 65 230 0.9 4.3 0.00 0.10 0.10 86 1006.2
20210619154033 65 219 0.9 1.7 0.00 0.10 0.10 86 1006.2
20210619153933 65 226 0.0 0.9 0.00 0.10 0.10 86 1006.1
20210619152933 65 212 2.6 4.3 0.00 0.10 0.10 88 1006.2
20210619152031 64 202 0.9 3.5 0.00 0.10 0.10 89 1006.0
20210619151032 63 204 1.7 3.5 0.00 0.10 0.10 90 1006.3
20210619150932 63 238 1.7 5.2 0.00 0.10 0.10 90 1006.3
20210619145932 63 260 0.9 2.6 0.00 0.10 0.10 91 1005.8
20210619144932 63 222 1.7 3.5 0.00 0.10 0.10 91 1006.0
20210619143934 62 192 1.7 3.5 0.01 0.10 0.10 91 1006.1
20210619143032 61 230 2.6 6.1 0.02 0.10 0.10 91 1006.0
20210619142033 61 202 0.0 1.7 0.09 0.10 0.10 90 1006.1
20210619141033 60 225 0.9 1.7 0.10 0.10 0.10 90 1006.1
20210619140039 60 202 0.0 1.7 0.10 0.10 0.10 90 1006.1
20210619135035 60 225 0.0 0.0 0.10 0.10 0.10 88 1006.3
20210619134032 60 167 1.7 1.7 0.09 0.09 0.09 88 1006.1
20210619133032 61 201 0.9 1.7 0.08 0.08 0.08 86 1006.3
20210619132034 61 221 2.6 5.2 0.01 0.01 0.01 84 1006.5
20210619131131 62 212 0.9 3.5 0.00 0.00 0.00 82 1006.7
20210619130131 63 225 1.7 7.0 0.00 0.00 0.00 79 1006.8
20210619125132 63 240 1.7 3.5 0.00 0.00 0.00 78 1006.9
20210619124232 63 222 2.6 5.2 0.00 0.00 0.00 76 1007.0
20210619124133 63 230 3.5 7.8 0.00 0.00 0.00 76 1007.0
20210619123133 64 230 2.6 4.3 0.00 0.00 0.00 75 1007.2
20210619122132 65 220 2.6 6.1 0.00 0.00 0.00 73 1006.6
20210619121133 66 230 1.7 2.6 0.00 0.00 0.00 72 1006.5
20210619120133 65 177 0.9 3.5 0.00 0.00 0.00 74 1006.2
20210619115133 64 226 1.7 2.6 0.00 0.00 0.00 76 1006.2
20210619114134 63 217 1.7 5.2 0.00 0.00 0.00 77 1006.5
20210619113233 62 201 1.7 4.3 0.00 0.00 0.00 78 1006.8
20210619112232 61 229 1.7 2.6 0.00 0.00 0.00 79 1006.8
20210619112132 61 246 0.9 1.7 0.00 0.00 0.00 79 1006.8
20210619111133 61 212 1.7 4.3 0.00 0.00 0.00 80 1006.8
20210619110136 61 223 1.7 2.6 0.00 0.00 0.00 80 1006.8
20210619105232 60 233 0.9 1.7 0.00 0.00 0.00 81 1006.8
20210619105131 60 180 0.0 0.9 0.00 0.00 0.00 81 1006.9
20210619104133 60 177 0.0 3.5 0.00 0.00 0.00 82 1006.8
20210619103133 59 199 0.9 3.5 0.00 0.00 0.00 84 1007.0
20210619102132 59 198 0.0 0.9 0.00 0.00 0.00 84 1006.9